EZY573H EGAA-EGPH

Flight info

Callsign EZY573H
Flight time 0h 28m
Altitude 19000
Route BLACA P600 TUNSO
Aircraft A319/M-SDE2E3FGIJ1RWXYZ/LB1

Departure

Time 2026-05-03 21:06
Airport Belfast International Airport (EGAA)

Arrival

Time 2026-05-03 21:34
Airport Edinburgh Airport (EGPH)
Time Latitude Longitude Altitude Speed Heading
2026-05-03 20:46 54.66144 -6.21384 272 ft 0 kts 245°
2026-05-03 20:58 54.66154 -6.21352 272 ft 4 kts 234°
2026-05-03 20:58 54.66172 -6.21320 272 ft 4 kts 204°
2026-05-03 20:58 54.66192 -6.21315 276 ft 1 kts 155°
2026-05-03 20:58 54.66196 -6.21318 277 ft 0 kts 155°
2026-05-03 21:01 54.66194 -6.21316 272 ft 0 kts 155°
2026-05-03 21:01 54.66173 -6.21299 274 ft 8 kts 155°
2026-05-03 21:01 54.66117 -6.21254 272 ft 9 kts 155°
2026-05-03 21:01 54.66055 -6.21211 272 ft 10 kts 172°
2026-05-03 21:02 54.66011 -6.21287 272 ft 11 kts 247°
2026-05-03 21:02 54.65975 -6.21427 275 ft 14 kts 245°
2026-05-03 21:02 54.65935 -6.21578 274 ft 14 kts 245°
2026-05-03 21:02 54.65893 -6.21735 272 ft 15 kts 245°
2026-05-03 21:03 54.65848 -6.21897 272 ft 17 kts 244°
2026-05-03 21:03 54.65788 -6.22123 274 ft 22 kts 249°
2026-05-03 21:03 54.65762 -6.22381 272 ft 22 kts 263°
2026-05-03 21:03 54.65744 -6.22645 272 ft 22 kts 263°
2026-05-03 21:04 54.65708 -6.22903 272 ft 23 kts 240°
2026-05-03 21:04 54.65615 -6.23124 272 ft 23 kts 234°
2026-05-03 21:04 54.65520 -6.23326 272 ft 20 kts 213°
2026-05-03 21:04 54.65405 -6.23407 272 ft 15 kts 196°
2026-05-03 21:05 54.65311 -6.23356 272 ft 14 kts 153°
2026-05-03 21:05 54.65288 -6.23286 272 ft 8 kts 77°
2026-05-03 21:05 54.65298 -6.23249 275 ft 1 kts 65°
2026-05-03 21:05 54.65358 -6.23031 272 ft 60 kts 64°
2026-05-03 21:06 54.65660 -6.21901 275 ft 144 kts 65°
2026-05-03 21:06 54.66138 -6.20136 686 ft 171 kts 64°
2026-05-03 21:06 54.66667 -6.18211 1376 ft 187 kts 62°
2026-05-03 21:06 54.67245 -6.16066 1823 ft 207 kts 64°
2026-05-03 21:07 54.67811 -6.13639 2416 ft 223 kts 67°
2026-05-03 21:07 54.68356 -6.11094 3291 ft 228 kts 68°
2026-05-03 21:07 54.68914 -6.08440 3959 ft 246 kts 69°
2026-05-03 21:07 54.69511 -6.05602 4808 ft 255 kts 69°
2026-05-03 21:08 54.70128 -6.02674 5724 ft 262 kts 69°
2026-05-03 21:08 54.70760 -5.99682 6691 ft 266 kts 69°
2026-05-03 21:08 54.71405 -5.96651 7634 ft 270 kts 68°
2026-05-03 21:08 54.72059 -5.93584 8554 ft 274 kts 69°
2026-05-03 21:09 54.72727 -5.90456 9469 ft 279 kts 69°
2026-05-03 21:09 54.73403 -5.87282 10289 ft 287 kts 68°
2026-05-03 21:09 54.74123 -5.83908 10607 ft 310 kts 68°
2026-05-03 21:09 54.74875 -5.80378 11192 ft 321 kts 68°
2026-05-03 21:10 54.75658 -5.76672 11966 ft 326 kts 68°
2026-05-03 21:10 54.76443 -5.72958 12773 ft 331 kts 68°
2026-05-03 21:10 54.77242 -5.69184 13573 ft 336 kts 68°
2026-05-03 21:10 54.78049 -5.65361 14290 ft 340 kts 68°
2026-05-03 21:11 54.78865 -5.61489 14979 ft 344 kts 68°
2026-05-03 21:11 54.79686 -5.57570 15667 ft 348 kts 68°
2026-05-03 21:11 54.80517 -5.53599 16343 ft 352 kts 69°
2026-05-03 21:11 54.81358 -5.49583 16866 ft 357 kts 68°
2026-05-03 21:12 54.82206 -5.45534 17000 ft 357 kts 69°
2026-05-03 21:12 54.83042 -5.41528 17024 ft 358 kts 69°
2026-05-03 21:12 54.83885 -5.37470 17027 ft 358 kts 69°
2026-05-03 21:12 54.84727 -5.33403 17025 ft 358 kts 69°
2026-05-03 21:13 54.85562 -5.29336 17025 ft 358 kts 69°
2026-05-03 21:13 54.86397 -5.25261 17025 ft 358 kts 69°
2026-05-03 21:13 54.87343 -5.21209 17014 ft 357 kts 61°
2026-05-03 21:13 54.88685 -5.17666 17012 ft 355 kts 49°
2026-05-03 21:14 54.90427 -5.14657 17013 ft 354 kts 37°
2026-05-03 21:14 54.92477 -5.12323 17010 ft 351 kts 26°
2026-05-03 21:14 54.94668 -5.10438 17012 ft 352 kts 25°
2026-05-03 21:14 54.96857 -5.08550 17015 ft 351 kts 25°
2026-05-03 21:15 54.99044 -5.06658 17019 ft 351 kts 25°
2026-05-03 21:15 55.01238 -5.04755 17015 ft 351 kts 25°
2026-05-03 21:15 55.03421 -5.02851 17012 ft 351 kts 26°
2026-05-03 21:15 55.05605 -5.00942 17016 ft 352 kts 25°
2026-05-03 21:16 55.07790 -4.99033 17012 ft 351 kts 25°
2026-05-03 21:16 55.09857 -4.96751 17012 ft 353 kts 38°
2026-05-03 21:16 55.11533 -4.93611 17018 ft 355 kts 54°
2026-05-03 21:16 55.12709 -4.89798 17016 ft 358 kts 66°
2026-05-03 21:17 55.13678 -4.85867 16953 ft 346 kts 66°
2026-05-03 21:17 55.14304 -4.83335 16864 ft 339 kts 65°
2026-05-03 21:17 55.15532 -4.78393 16662 ft 325 kts 65°
2026-05-03 21:17 55.16428 -4.74791 16368 ft 321 kts 65°
2026-05-03 21:18 55.17313 -4.71225 16027 ft 319 kts 65°
2026-05-03 21:18 55.18192 -4.67675 15674 ft 317 kts 65°
2026-05-03 21:18 55.19069 -4.64135 15335 ft 316 kts 65°
2026-05-03 21:18 55.19939 -4.60616 15004 ft 314 kts 65°
2026-05-03 21:19 55.20803 -4.57111 14664 ft 313 kts 65°
2026-05-03 21:19 55.21662 -4.53617 14346 ft 311 kts 65°
2026-05-03 21:19 55.22513 -4.50143 14024 ft 310 kts 65°
2026-05-03 21:19 55.23359 -4.46685 13689 ft 308 kts 65°
2026-05-03 21:20 55.24200 -4.43243 13334 ft 306 kts 65°
2026-05-03 21:20 55.25035 -4.39816 13000 ft 305 kts 65°
2026-05-03 21:20 55.25863 -4.36412 12653 ft 303 kts 65°
2026-05-03 21:20 55.26689 -4.33026 12298 ft 301 kts 65°
2026-05-03 21:21 55.27508 -4.29655 12032 ft 299 kts 65°
2026-05-03 21:21 55.28322 -4.26295 12016 ft 300 kts 65°
2026-05-03 21:21 55.29140 -4.22924 12017 ft 300 kts 65°
2026-05-03 21:21 55.29958 -4.19548 12016 ft 300 kts 65°
2026-05-03 21:22 55.30776 -4.16172 12015 ft 301 kts 65°
2026-05-03 21:22 55.31591 -4.12796 12015 ft 301 kts 65°
2026-05-03 21:22 55.32406 -4.09404 12014 ft 301 kts 66°
2026-05-03 21:22 55.33217 -4.06022 12014 ft 301 kts 66°
2026-05-03 21:23 55.34028 -4.02640 12012 ft 300 kts 66°
2026-05-03 21:23 55.34836 -3.99253 12013 ft 300 kts 66°
2026-05-03 21:23 55.35643 -3.95867 12016 ft 300 kts 66°
2026-05-03 21:23 55.36450 -3.92480 12016 ft 300 kts 66°
2026-05-03 21:24 55.37258 -3.89091 11980 ft 300 kts 66°
2026-05-03 21:24 55.38279 -3.85942 11668 ft 295 kts 46°
2026-05-03 21:24 55.39913 -3.83875 11324 ft 289 kts 21°
2026-05-03 21:24 55.41820 -3.82775 10938 ft 288 kts 15°
2026-05-03 21:25 55.43746 -3.81819 10591 ft 287 kts 14°
2026-05-03 21:25 55.45663 -3.80886 10259 ft 285 kts 14°
2026-05-03 21:25 55.47564 -3.79956 9903 ft 283 kts 14°
2026-05-03 21:25 55.49452 -3.78999 9508 ft 282 kts 14°
2026-05-03 21:26 55.51334 -3.78048 9132 ft 280 kts 14°
2026-05-03 21:26 55.53200 -3.77114 8754 ft 278 kts 14°
2026-05-03 21:26 55.55051 -3.76194 8382 ft 275 kts 14°
2026-05-03 21:26 55.56891 -3.75287 8000 ft 273 kts 14°
2026-05-03 21:27 55.58714 -3.74394 7627 ft 271 kts 14°
2026-05-03 21:27 55.60525 -3.73514 7244 ft 269 kts 14°
2026-05-03 21:27 55.62319 -3.72651 6880 ft 266 kts 14°
2026-05-03 21:27 55.64103 -3.71800 6502 ft 264 kts 14°
2026-05-03 21:28 55.65875 -3.70961 6107 ft 262 kts 14°
2026-05-03 21:28 55.67635 -3.70133 5684 ft 261 kts 14°
2026-05-03 21:28 55.69381 -3.69309 5264 ft 259 kts 14°
2026-05-03 21:28 55.71125 -3.68487 4835 ft 258 kts 14°
2026-05-03 21:29 55.72850 -3.67672 4411 ft 256 kts 14°
2026-05-03 21:29 55.74569 -3.66852 3966 ft 256 kts 14°
2026-05-03 21:29 55.76283 -3.66025 3546 ft 255 kts 14°
2026-05-03 21:29 55.77989 -3.65196 3124 ft 253 kts 14°
2026-05-03 21:30 55.79706 -3.64360 2663 ft 253 kts 14°
2026-05-03 21:30 55.81377 -3.63549 2498 ft 252 kts 14°
2026-05-03 21:30 55.83079 -3.62729 2505 ft 254 kts 14°
2026-05-03 21:30 55.84762 -3.61918 2506 ft 254 kts 14°
2026-05-03 21:31 55.86400 -3.60747 2504 ft 255 kts 32°
2026-05-03 21:31 55.87669 -3.58678 2502 ft 241 kts 52°
2026-05-03 21:31 55.88533 -3.56223 2406 ft 222 kts 58°
2026-05-03 21:31 55.89310 -3.53951 2184 ft 209 kts 58°
2026-05-03 21:32 55.90047 -3.51798 1878 ft 197 kts 58°
2026-05-03 21:32 55.90733 -3.49787 1616 ft 182 kts 59°
2026-05-03 21:32 55.91364 -3.47938 1385 ft 164 kts 59°
2026-05-03 21:32 55.91926 -3.46290 1148 ft 149 kts 59°
2026-05-03 21:33 55.92452 -3.44745 946 ft 143 kts 59°
2026-05-03 21:33 55.92962 -3.43247 750 ft 140 kts 58°
2026-05-03 21:33 55.93464 -3.41769 569 ft 139 kts 58°
2026-05-03 21:33 55.93965 -3.40296 376 ft 138 kts 58°
2026-05-03 21:34 55.94294 -3.39328 252 ft 138 kts 58°
2026-05-03 21:34 55.94780 -3.37901 115 ft 125 kts 58°
2026-05-03 21:34 55.95161 -3.36773 114 ft 85 kts 59°
2026-05-03 21:34 55.95399 -3.36069 111 ft 44 kts 58°
2026-05-03 21:35 55.95533 -3.35670 113 ft 28 kts 61°
2026-05-03 21:35 55.95559 -3.35508 113 ft 10 kts 121°
2026-05-03 21:35 55.95505 -3.35448 114 ft 8 kts 151°
2026-05-03 21:35 55.95453 -3.35400 114 ft 9 kts 159°
2026-05-03 21:36 55.95413 -3.35452 114 ft 9 kts 240°
2026-05-03 21:36 55.95362 -3.35609 113 ft 17 kts 238°
2026-05-03 21:36 55.95300 -3.35793 116 ft 18 kts 239°
2026-05-03 21:36 55.95235 -3.35988 114 ft 19 kts 238°
2026-05-03 21:37 55.95165 -3.36191 116 ft 20 kts 238°
2026-05-03 21:37 55.95093 -3.36404 114 ft 20 kts 238°
2026-05-03 21:37 55.95018 -3.36624 115 ft 21 kts 239°
2026-05-03 21:37 55.94948 -3.36823 114 ft 13 kts 222°
2026-05-03 21:38 55.94867 -3.36783 113 ft 13 kts 161°
2026-05-03 21:38 55.94783 -3.36775 116 ft 10 kts 172°
2026-05-03 21:38 55.94751 -3.36694 114 ft 9 kts 91°
2026-05-03 21:38 55.94751 -3.36621 116 ft 0 kts 89°